Tracking 26955 objects as of 3-Feb-2023
HD Live streaming from Space Station
objects crossing your sky now

ONEWEB-0351

Track ONEWEB-0351 now!
10-day predictions
ONEWEB-0351 is classified as:


NORAD ID: 49215
Int'l Code: 2021-083AF
Perigee: 1,187.9 km
Apogee: 1,189.9 km
Inclination: 87.9 °
Period: 109.0 minutes
Semi major axis: 7559 km
RCS: Unknown
Launch date: September 14, 2021
Source: United Kingdom (UK)
Launch site: TYURATAM MISSILE AND SPACE COMPLEX (TTMTR)
Your satellite tracking list
Your tracking list is empty




NASA's NSSDC Master Catalog

Two Line Element Set (TLE):
1 49215U 21083AF  23033.36181293  .00000144  00000-0  32317-3 0  9997
2 49215  87.9308 159.4274 0001320  82.1886 277.9397 13.20775400 74306
Source of the keplerian elements: AFSPC